Regional Weather Roundup
Issued by NWS

Home | Current Version | Previous Version | Graphics & Text | Print | Product List | Glossary On
Versions: 1 2 3 4 5 6 7 8 9 10 11 12 13 14 15 16 17 18 19 20 21 22 23 24 25 26 27
000
ASUS45 KBOU 171507
RWRCO

WEATHER ROUNDUP FOR COLORADO
NATIONAL WEATHER SERVICE DENVER/BOULDER CO
900 AM MDT TUE OCT 17 2017

NOTE: "FAIR" INDICATES FEW OR NO CLOUDS BELOW 12000 FEET WITH NO
SIGNIFICANT WEATHER AND/OR OBSTRUCTIONS TO VISIBILITY.

COZ001>005-013-030-031-171600-
...NORTHWEST COLORADO...

CITY           SKY/WX    TMP DP  RH WIND       PRES   REMARKS
CRAIG          FAIR      29  19  66 CALM      30.42R
HAYDEN         FAIR      36  12  37 E10       30.43R
MEEKER         FAIR      36  16  44 CALM      30.42R
RABBIT EARS PA FAIR      37   1  22 CALM      30.53S
STEAMBOAT SPGS FAIR      30  14  51 CALM      30.43S
WALDEN         FAIR      36  10  35 SE3       30.44S
$$

COZ006>008-011-171600-
...WEST CENTRAL VALLEYS...

CITY           SKY/WX    TMP DP  RH WIND       PRES   REMARKS
GRAND JUNCTION FAIR      42  15  33 SE8       30.39R
MONTROSE       FAIR      39  17  41 S6        30.44S
EAGLE          FAIR      29  14  53 CALM      30.51R
RIFLE          FAIR      35  19  52 CALM      30.44R
DELTA          FAIR      41  12  31 E5        30.43S
NUCLA          FAIR      39   7  26 CALM      30.45S
$$

COZ017>023-064>068-171600-
...SOUTHWEST COLORADO...

CITY           SKY/WX    TMP DP  RH WIND       PRES   REMARKS
DURANGO        FAIR      37  18  46 CALM      30.42R
CORTEZ         FAIR      42  14  32 E5        30.41R
PAGOSA SPRINGS FAIR      42  13  30 CALM      30.46S
TELLURIDE      NOT AVBL
WOLF CREEK PAS FAIR      39  -4  16 CALM      30.67S
$$

COZ009-010-012-014-032>034-037-058>063-171600-
...CENTRAL COLORADO...

CITY           SKY/WX    TMP DP  RH WIND       PRES   REMARKS
ASPEN          FAIR      40   9  28 CALM      30.45S
BUENA VISTA    FAIR      42   4  21 NW9       30.45S
COPPER MTN     FAIR      39 -15   9 W7        30.62R
BERTHOUD PASS  FAIR      30  21  69 NW23G30   30.60R WCI  17
COTTONWOOD PAS FAIR      50  -9   8 NW8G18    30.51S
GUNNISON       FAIR      25   9  50 CALM      30.56R
KREMMLING      FAIR      30  21  69 CALM      30.51S
LEADVILLE      FAIR      34   0  23 CALM      30.51S
MONARCH PASS   FAIR      34  -4  19 W23       30.71R WCI  22
SALIDA         NOT AVBL
SUNLIGHT       FAIR      36  -6  17 SW9       30.60R
WILKERSON PASS FAIR      37 -15  10 W9        30.58R
$$

COZ069>075-171600-
...SAN LUIS VALLEY/SANGRE DE CRISTO MOUNTAINS...

CITY           SKY/WX    TMP DP  RH WIND       PRES   REMARKS
ALAMOSA        FAIR      36  18  48 SW5       30.47R
DEL NORTE      FAIR      41  12  30 W15       30.48R
LA VETA PASS   FAIR      43  12  28 SW22G29   30.62R
SAGUACHE       FAIR      41  10  28 NW16      30.47S
$$

COZ035-036-038>040-171600-
...NORTHERN COLORADO FRONT RANGE...

CITY           SKY/WX    TMP DP  RH WIND       PRES   REMARKS
DENVER INTL AP FAIR      55  13  18 SW13      30.26R
DMNS CITY PARK   N/A     52  12  20 SE8       30.27S
AURORA         MOSUNNY   53  16  22 S7        30.28R
FRONT RANGE AP MOSUNNY   57  14  18 SW10G20   30.27R
ERIE MUNI ARPT FAIR      46  24  43 CALM      30.31S
BOULDER MUN AP FAIR      52  23  32 CALM      30.25S
CENTENNIAL     FAIR      50  18  28 SE5       30.29R
BROOMFIELD     MOSUNNY   54  19  26 CALM      30.27R
FORT COLLINS   FAIR      46  32  58 S3        30.25R
LONGMONT       FAIR      48  31  52 CALM      30.27S
$$

COZ041-046-047-076>085-087-088-171600-
...PIKES PEAK/PALMER DIVIDE AND SOUTHERN FOOTHILLS...

CITY           SKY/WX    TMP DP  RH WIND       PRES   REMARKS
COLO. SPRINGS  FAIR      62  13  14 CALM      30.32R
A. F. ACADEMY  FAIR      48  13  24 N6        30.32R
SCHRIEVER AFB  FAIR      60  10  14 NE5       30.32R
CHEYENNE MTN   FAIR      61  15  16 SE8       30.30R
ELLICOTT       FAIR     N/A N/A N/A SE9       30.29R
FALCON         FAIR      60   9  13 CALM      30.36R
FORT CARSON    FAIR      53  15  23 N8        30.30R
LIMON          FAIR      54  24  31 W5        30.27R
MONUMENT HILL  FAIR      54  12  19 S5        30.36R
CANON CITY     SUNNY     57  10  15 W14G20    30.29R
WALSENBURG     FAIR      63  14  15 SW12      30.30F
TRINIDAD       FAIR      53  21  28 W9        30.30S
$$

COZ042>045-048>051-090-091-171600-
...NORTHEAST COLORADO...

CITY           SKY/WX    TMP DP  RH WIND       PRES   REMARKS
GREELEY ARPT   FAIR      42  32  67 CALM      30.26R
AKRON          NOT AVBL
BURLINGTON     FAIR      57  30  35 CALM      30.21S
WRAY           FAIR      48  30  49 W6        30.20S
YUMA           FAIR      48  30  49 W7        30.21R
STERLING       FAIR      37  32  81 SW6       30.21S
HOLYOKE        FAIR      54  34  47 W5        30.19S
FORT MORGAN    FAIR      43  27  53 W16       30.24S
$$

COZ086-089-092>099-171600-
...SOUTHEAST COLORADO...

CITY           SKY/WX    TMP DP  RH WIND       PRES   REMARKS
PUEBLO         FAIR      53  21  28 SW3       30.25R
LA JUNTA       FAIR      51  26  37 W7        30.24R
LAMAR          FAIR      50  31  48 W10       30.20R
SPRINGFIELD      N/A     63  30  28 N9        30.19S
$$




USA.gov is the U.S. government's official web portal to all federal, state and local government web resources and services.